This demonstration page uses our WeatherBlox Daily Observations layout. Learn more.

36.17497, -115.13722

Hourly Observations for March 22, 2018

Temp ( °F °C ) Dew Point ( °F °C ) Humidity (%) Winds ( mph kmh ) Pressure ( in mb ) Visibility ( mi km ) Precip ( " mm )
12:53 am 00:53 Clear 61 16.1 47 8.3 60 60 ESE 6 9 30 1016 10 16.0934 0 0
1:53 am 01:53 Clear 61 16.1 47 8.3 60 60 E 5 7 29.99 1016 10 16.0934 0 0
2:53 am 02:53 Clear 60 15.6 47 8.3 62 62 Calm 29.98 1015 10 16.0934 0 0
3:53 am 03:53 Cloudy with Light Rain 60 15.6 51 10.6 72 72 Calm 29.98 1015 10 16.0934 0 0.0254
4:53 am 04:53 Cloudy 60 15.6 53 11.7 78 78 W 3 6 29.98 1015 10 16.0934 0 0.0254
5:53 am 05:53 Cloudy 60 15.6 52 11.1 75 75 Calm 29.98 1015 10 16.0934 0 0.0254
6:53 am 06:53 Cloudy with Light Rain 59 15 55 12.8 87 87 ESE 3 6 29.98 1015 10 16.0934 0.02 0.508
7:53 am 07:53 Cloudy with Light Rain 59 15 56 13.3 90 90 Calm 30 1016 10 16.0934 0 0.0254
8:53 am 08:53 Cloudy 61 16.1 53 11.7 75 75 E 5 7 30.01 1016 10 16.0934 0 0.0254
9:53 am 09:53 Cloudy 61 16.1 53 11.7 75 75 ENE 3 6 30.01 1016 10 16.0934 0 0
10:53 am 10:53 Cloudy 63 17.2 53 11.7 70 70 ESE 5 7 29.99 1016 10 16.0934 0 0.0254
11:53 am 11:53 Mostly Cloudy 64 17.8 51 10.6 63 63 ESE 3 6 29.98 1015 10 16.0934 0 0
12:53 pm 12:53 Cloudy 65 18.3 50 10 59 59 SSE 9 15 29.98 1015 10 16.0934 0 0
1:53 pm 13:53 Mostly Cloudy 67 19.4 52 11.1 59 59 SSW 9 15 29.96 1015 10 16.0934 0 0
2:53 pm 14:53 Cloudy 66 18.9 47 8.3 50 50 W 13 20 29.98 1015 10 16.0934 0 0
3:53 pm 15:53 Cloudy with Light Rain 66 18.9 48 8.9 52 52 WSW 17 28 29.98 1015 10 16.0934 0 0.0254
4:53 pm 16:53 Sunny 65 18.3 49 9.4 56 56 SSW 10 17 29.96 1014 10 16.0934 0 0.0254
5:53 pm 17:53 Sunny 66 18.9 48 8.9 52 52 S 7 11 29.95 1014 10 16.0934 0 0
6:53 pm 18:53 Sunny 64 17.8 48 8.9 56 56 S 12 19 29.93 1014 10 16.0934 0 0
7:53 pm 19:53 Clear 63 17.2 48 8.9 58 58 S 9 15 29.93 1014 10 16.0934 0 0
8:53 pm 20:53 Clear 61 16.1 48 8.9 63 63 S 8 13 29.94 1014 10 16.0934 0 0
9:53 pm 21:53 Clear 62 16.7 48 8.9 60 60 SSW 6 9 29.94 1014 10 16.0934 0 0
10:53 pm 22:53 Clear 60 15.6 49 9.4 67 67 SSW 8 13 29.93 1014 10 16.0934 0 0
11:53 pm 23:53 Clear 62 16.7 47 8.3 58 58 SSW 6 9 29.93 1014 10 16.0934 0 0

Powered by AerisWeather